[[{"header":{"parameterUnit":"m.s-1","parameterCategory":1,"la1":30.2991,"la2":30.254,"lo1":-89.0895,"lo2":-89.0444,"dy":0.0017,"dx":0.0017,"nx":28,"ny":28,"refTime":"2024-10-15T09:00:00:Z","depth":0,"parameterNumber":2,"parameterNumberName":"U-component_of_WINDS"},"data":[0,0,0,0,0,0,0,0,0,0,0,0,0,0,0,0,0,0,0,0,0,0,0,0,0,0,0,0,0,0,0,0,0,0,0,0,0,0,0,0,0,0,0,0,0,0,0,0,0,0,0,0,0,0,0,0,0,0,-3.9179,-3.918,0,-3.9193,-3.9194,-3.9194,-3.901,-3.9005,-3.9,-3.8995,-3.9012,-3.9017,-3.9022,0,0,0,0,0,0,0,0,0,0,0,0,0,-3.8994,-3.8999,-3.9179,-3.918,-3.918,-3.9193,-3.9194,-3.9194,-3.9011,-3.9005,-3.8998,-3.8993,-3.901,-3.9016,-3.9022,0,0,0,0,0,0,0,0,0,0,0,0,0,-3.9048,-3.9,-3.9179,-3.909,-3.9082,-3.9193,-3.9194,-3.9194,-3.9012,-3.9004,-3.8997,-3.899,-3.9008,-3.9016,-3.9023,-3.9221,0,0,-3.9047,-3.905,0,0,0,0,0,0,0,0,-3.9046,-3.9055,-3.9103,-3.9096,-3.9088,-3.9092,-3.9134,-3.9203,-3.9014,-3.9039,-3.8995,-3.8986,-3.9045,-3.9049,-3.9068,-3.9222,-3.9223,-3.9047,-3.9052,-3.9055,-3.9057,0,0,0,0,0,0,0,-3.9042,-3.9054,-3.9185,-3.9104,-3.9095,-3.9049,-3.9049,-3.9147,-3.9084,-3.9036,-3.9023,-3.9027,-3.9039,-3.9061,-3.9067,-3.9223,-3.9047,-3.9054,-3.9059,-3.9062,-3.954,-3.9547,0,0,0,0,0,0,-3.905,-3.9052,-3.9184,-3.9185,-3.9048,-3.9059,-3.9058,-3.9098,-3.9082,-3.9073,-3.9033,-3.9018,-3.9052,-3.9058,-3.9067,-3.9298,-3.9055,-3.9062,-3.9067,-3.9532,-3.9541,-3.955,0,0,0,0,0,0,-3.9047,-3.9064,-3.9184,-3.9115,-3.9127,-3.907,-3.9117,-3.9103,-3.9124,-3.908,-3.9068,-3.9067,-3.9046,-3.9056,-3.9184,-3.9296,-3.9066,-3.9073,-3.9522,-3.9535,-3.9546,-3.9762,0,0,0,0,0,0,-3.9043,-3.9064,-3.9139,-3.9118,-3.9131,-3.9301,-3.9124,-3.9108,-3.9138,-3.9118,-3.9109,-3.91,-3.9041,-3.9174,-3.9192,-3.9303,-3.9079,-3.9512,-3.9528,-3.9542,-3.9745,-3.978,-3.9811,0,0,0,0,0,-3.9037,-3.92,-3.9143,-3.916,-3.9224,-3.9308,-3.9316,-3.9244,-3.9148,-3.9223,-3.9194,-3.91,-3.9281,-3.9188,-3.9207,-3.9322,-3.9504,-3.9523,-3.9541,-3.973,-3.9773,-3.981,0,0,0,0,0,0,-3.9236,-3.9195,-3.9133,-3.9294,-3.9306,-3.9277,-3.9369,-3.9292,-3.9332,-3.9312,-3.9221,-3.922,-3.9363,-3.9355,-3.9253,-3.9512,-3.9376,-3.9399,-3.9513,-3.9554,-3.9586,-3.9586,-3.9085,0,0,0,0,0,-3.9299,-3.9371,-3.9331,-3.9477,-3.9486,-3.9427,-3.9461,-3.9404,-3.9413,-3.9418,-3.9398,-3.9411,-3.947,-3.9511,-3.9563,-3.9742,-3.9737,-3.983,-3.9863,-3.989,-3.9912,-4.0005,-4.0046,-3.961,-3.961,-3.9609,0,0,-3.943,-3.9416,-3.9467,-3.9517,-3.9519,-3.9596,-3.9433,-3.9521,-3.9577,-3.9431,-3.9551,-3.9537,-3.9545,-3.9699,-3.9766,-3.9697,-4.0031,-3.9913,-3.9935,-3.9942,-4.0028,-4.007,-4.0106,-3.9622,-3.962,-3.9618,0,0,-3.9707,-3.9704,-3.9825,-3.983,-3.9835,-3.9795,-3.9824,-3.9807,-3.9792,-3.991,-3.9802,-3.9867,-3.9971,-3.9981,-4.0,-4.0279,-4.0195,-4.0298,-4.0471,-4.0563,-4.0598,-4.0628,-4.0728,-4.0765,-4.0319,-4.032,-4.032,0,-3.9869,-3.9979,-3.9897,-3.9992,-4.0017,-3.9887,-4.001,-4.0019,-4.0042,-4.0062,-3.9983,-4.011,-4.0107,-4.0261,-4.033,-4.0349,-4.038,-4.03,-4.0599,-4.0628,-4.0655,-4.075,-4.0788,-4.0332,-4.0331,-4.033,-4.0329,0,-4.0178,-4.0257,-4.0354,-4.0378,-4.0414,-4.0522,-4.0457,-4.0503,-4.0442,-4.041,-4.0532,-4.0522,-4.057,-4.0602,-4.0544,-4.0749,-4.0705,-4.0615,-4.0476,-4.0711,-4.0798,-4.0834,-4.0351,-4.0346,-4.0342,-4.0339,0,0,-4.0584,-4.056,-4.0597,-4.0606,-4.0602,-4.0661,-4.0763,-4.0808,-4.085,-4.0869,-4.0953,-4.1043,-4.0958,-4.098,-4.0922,-4.1003,-4.1225,-4.0901,-4.09,-4.0963,-4.145,-4.152,-4.1563,-4.1168,-4.1175,-4.118,-4.145,0,-4.0854,-4.1027,-4.0955,-4.1135,-4.1206,-4.1083,-4.1172,-4.1179,-4.1151,-4.1208,-4.1176,-4.1242,-4.1125,-4.1137,-4.1212,-4.1183,-4.1322,-4.1162,-4.1246,-4.125,-4.125,-4.1608,-4.1682,-4.1937,-4.1483,-4.1489,-4.1493,0,-4.1193,-4.1226,-4.1413,-4.1394,-4.1421,-4.1503,-4.1538,-4.1593,-4.1599,-4.1572,-4.1596,-4.152,-4.1618,-4.1479,-4.1614,-4.1507,-4.1536,-4.1527,-4.1535,-4.1542,-4.1388,-4.1626,-4.2017,-4.2056,-4.1546,-4.1542,-4.1538,0,-4.1471,-4.1562,-4.1685,-4.1696,-4.1678,-4.1738,-4.1733,-4.1731,-4.1762,-4.1793,-4.1813,-4.1856,-4.188,-4.1914,-4.1851,-4.1755,-4.1996,-4.1851,-4.1977,-4.198,-4.2035,-4.2033,-4.2438,-4.2053,-4.2052,-4.2052,-4.2051,0,-4.1781,-4.1901,-4.1809,-4.1886,-4.2015,-4.1931,-4.2062,-4.2044,-4.2042,-4.2113,-4.2008,-4.2077,-4.1988,-4.2049,-4.2,-4.2119,-4.2131,-4.2113,-4.2099,-4.2123,-4.2126,-4.2142,-4.2124,-4.2062,-4.2059,-4.2057,-4.2056,0,-4.2115,-4.2058,-4.2185,-4.2156,-4.2152,-4.2249,-4.2225,-4.2294,-4.2258,-4.2348,-4.2365,-4.2309,-4.2374,-4.2314,-4.2376,-4.2343,-4.2503,-4.2462,-4.2501,-4.2491,-4.2621,-4.261,-4.3052,-4.3106,-4.2686,-4.269,-4.2694,0,-4.2317,-4.2406,-4.2387,-4.2426,-4.2428,-4.2492,-4.2524,-4.2444,-4.2481,-4.2493,-4.2561,-4.2617,-4.2657,-4.2767,-4.2732,-4.2779,-4.2739,-4.2891,-4.2746,-4.2768,-4.2743,-4.2739,-4.2747,-4.2921,-4.2926,-4.2931,-4.2934,0,-4.2683,-4.265,-4.2699,-4.2739,-4.2779,-4.2806,-4.2825,-4.2863,-4.2781,-4.2828,-4.2892,-4.2924,-4.2986,-4.3044,-4.3079,-4.3074,-4.2992,-4.2979,-4.3011,-4.3038,-4.3057,-4.3049,-4.2583,-4.297,-4.2966,-4.2964,-4.2962,-4.296,-4.2957,-4.303,-4.3028,-4.3086,-4.3091,-4.3111,-4.3175,-4.3146,-4.3198,-4.3243,-4.3192,-4.3272,-4.3273,-4.3312,-4.3317,-4.3378,-4.3314,-4.3361,-4.3372,-4.3385,-4.3405,-4.3046,-4.3384,-4.3383,-4.3382,-4.3381,-4.338,0,-4.3317,-4.3309,-4.3363,-4.3393,-4.3439,-4.3355,-4.3371,-4.3415,-4.3486,-4.3494,-4.3536,-4.361,-4.3664,-4.3633,-4.368,-4.3735,-4.3698,-4.375,-4.3746,-4.3746,-4.3459,-4.3427,-4.3779,-4.3779,-4.3779,-4.3779,-4.3779,-4.3779,-4.3511,-4.3629,-4.3596,-4.3717,-4.3707,-4.3784,-4.3801,-4.3819,-4.3824,-4.3912,-4.3956,-4.3935,-4.3927,-4.3972,-4.4019,-4.4008,-4.403,-4.4097,-4.4073,-4.3805,-4.3766,-4.3729,-4.3698,-4.4102,-4.4102,-4.4354,-4.4357,-4.4359]},{"header":{"parameterUnit":"m.s-1","parameterCategory":1,"la1":30.2991,"la2":30.254,"lo1":-89.0895,"lo2":-89.0444,"dy":0.0017,"dx":0.0017,"nx":28,"ny":28,"refTime":"2024-10-15T09:00:00:Z","depth":0,"parameterNumber":3,"parameterNumberName":"V-component_of_WINDS"},"data":[0,0,0,0,0,0,0,0,0,0,0,0,0,0,0,0,0,0,0,0,0,0,0,0,0,0,0,0,0,0,0,0,0,0,0,0,0,0,0,0,0,0,0,0,0,0,0,0,0,0,0,0,0,0,0,0,0,0,-6.5253,-6.5254,0,-6.5322,-6.5322,-6.5323,-6.5206,-6.5202,-6.5198,-6.5194,-6.5259,-6.5265,-6.527,0,0,0,0,0,0,0,0,0,0,0,0,0,-6.5014,-6.5019,-6.5253,-6.5254,-6.5255,-6.5321,-6.5322,-6.5323,-6.5206,-6.5202,-6.5197,-6.5192,-6.5258,-6.5264,-6.5271,0,0,0,0,0,0,0,0,0,0,0,0,0,-6.5103,-6.502,-6.5253,-6.5204,-6.5201,-6.5321,-6.5322,-6.5323,-6.5207,-6.5201,-6.5195,-6.519,-6.5256,-6.5263,-6.5272,-6.5441,0,0,-6.5296,-6.53,0,0,0,0,0,0,0,0,-6.5099,-6.5112,-6.5211,-6.5208,-6.5204,-6.5249,-6.5262,-6.5363,-6.5209,-6.5205,-6.5194,-6.5187,-6.5261,-6.5268,-6.5294,-6.5444,-6.5447,-6.5297,-6.5302,-6.5306,-6.5308,0,0,0,0,0,0,0,-6.5092,-6.5109,-6.528,-6.5212,-6.5208,-6.5177,-6.5183,-6.528,-6.5265,-6.5205,-6.5196,-6.5206,-6.5257,-6.5286,-6.5294,-6.5448,-6.5297,-6.5304,-6.5309,-6.5312,-6.5737,-6.5743,0,0,0,0,0,0,-6.5093,-6.5104,-6.5278,-6.5282,-6.5136,-6.5186,-6.5193,-6.5241,-6.5264,-6.5261,-6.5211,-6.5201,-6.5275,-6.5285,-6.5296,-6.5494,-6.5306,-6.5313,-6.5318,-6.573,-6.5738,-6.5745,0,0,0,0,0,0,-6.5088,-6.511,-6.5275,-6.5191,-6.521,-6.5197,-6.5251,-6.5245,-6.5273,-6.5269,-6.5265,-6.5244,-6.5271,-6.5285,-6.5405,-6.5494,-6.5317,-6.5324,-6.5723,-6.5733,-6.5742,-6.5892,0,0,0,0,0,0,-6.5082,-6.5109,-6.5175,-6.5193,-6.5215,-6.5385,-6.5256,-6.5251,-6.5288,-6.5275,-6.5298,-6.5296,-6.5267,-6.5394,-6.5414,-6.5502,-6.5331,-6.5715,-6.5727,-6.5739,-6.5879,-6.5906,-6.5928,0,0,0,0,0,-6.5074,-6.5214,-6.5179,-6.52,-6.5297,-6.5391,-6.5403,-6.5368,-6.5296,-6.5361,-6.5357,-6.5295,-6.5482,-6.5407,-6.5428,-6.5521,-6.5709,-6.5724,-6.5738,-6.5868,-6.59,-6.5928,0,0,0,0,0,0,-6.5204,-6.5215,-6.5176,-6.5327,-6.5359,-6.5371,-6.5452,-6.5404,-6.5455,-6.5441,-6.5393,-6.54,-6.5529,-6.5537,-6.5454,-6.5685,-6.5583,-6.5602,-6.5675,-6.5706,-6.573,-6.5724,-6.5337,0,0,0,0,0,-6.5251,-6.5328,-6.5333,-6.5465,-6.5483,-6.5465,-6.5505,-6.5475,-6.5506,-6.5518,-6.5523,-6.5554,-6.5619,-6.5663,-6.5722,-6.588,-6.5881,-6.5954,-6.5978,-6.5999,-6.6015,-6.6096,-6.6128,-6.5792,-6.5792,-6.5792,0,0,-6.5347,-6.5363,-6.5414,-6.5492,-6.5513,-6.5591,-6.5477,-6.5566,-6.5623,-6.5531,-6.5645,-6.565,-6.5681,-6.582,-6.5882,-6.583,-6.6109,-6.6017,-6.6033,-6.6039,-6.6114,-6.6146,-6.6175,-6.5802,-6.58,-6.5799,0,0,-6.5563,-6.5584,-6.5695,-6.5719,-6.5753,-6.574,-6.5767,-6.5786,-6.5786,-6.59,-6.5832,-6.5898,-6.6012,-6.6036,-6.6063,-6.6286,-6.623,-6.6307,-6.6435,-6.6515,-6.6541,-6.6564,-6.6642,-6.6671,-6.6324,-6.6324,-6.6325,0,-6.5678,-6.5796,-6.5758,-6.5851,-6.5886,-6.5808,-6.5918,-6.5942,-6.5994,-6.6019,-6.5961,-6.6101,-6.6116,-6.6259,-6.6313,-6.6339,-6.6366,-6.6304,-6.6541,-6.6564,-6.6585,-6.6658,-6.6688,-6.6333,-6.6332,-6.6331,-6.6331,0,-6.5935,-6.6017,-6.6103,-6.6156,-6.62,-6.6302,-6.6276,-6.6326,-6.6292,-6.6284,-6.64,-6.6415,-6.6476,-6.6507,-6.6475,-6.6645,-6.6612,-6.6549,-6.6446,-6.6627,-6.6694,-6.6722,-6.6346,-6.6343,-6.634,-6.6338,0,0,-6.6235,-6.6265,-6.6297,-6.6318,-6.635,-6.6412,-6.6508,-6.6569,-6.6611,-6.6648,-6.6727,-6.6824,-6.6765,-6.6796,-6.6766,-6.6836,-6.7009,-6.6763,-6.6763,-6.6807,-6.7194,-6.7241,-6.7274,-6.6972,-6.6978,-6.6982,-6.7191,0,-6.6448,-6.6617,-6.6584,-6.6748,-6.6822,-6.6748,-6.6832,-6.6859,-6.6854,-6.6914,-6.6907,-6.6977,-6.6895,-6.6913,-6.6979,-6.6974,-6.7086,-6.6959,-6.7042,-6.7046,-6.7036,-6.731,-6.736,-6.7557,-6.7218,-6.7222,-6.7226,0,-6.6719,-6.6768,-6.694,-6.6957,-6.6987,-6.7063,-6.7115,-6.7175,-6.7202,-6.7193,-6.7228,-6.7183,-6.7277,-6.7173,-6.73,-6.7214,-6.7246,-6.7249,-6.7256,-6.7261,-6.7146,-6.7321,-6.7619,-6.7648,-6.7267,-6.7264,-6.7261,0,-6.6918,-6.7027,-6.7143,-6.7164,-6.7188,-6.7243,-6.7255,-6.7278,-6.7315,-6.736,-6.7383,-6.7438,-6.7467,-6.751,-6.748,-6.7408,-6.7611,-6.7506,-6.7604,-6.7605,-6.7649,-6.7647,-6.7955,-6.7673,-6.7673,-6.7672,-6.7672,0,-6.7159,-6.7266,-6.7233,-6.7304,-6.7421,-6.7382,-6.7498,-6.7501,-6.7521,-6.759,-6.7529,-6.7594,-6.7552,-6.7613,-6.7591,-6.7698,-6.7712,-6.7706,-6.7698,-6.771,-6.7711,-6.773,-6.7715,-6.768,-6.7678,-6.7677,-6.7675,0,-6.7401,-6.7383,-6.7505,-6.7517,-6.7523,-6.7608,-6.7618,-6.7683,-6.7673,-6.7761,-6.7779,-6.7763,-6.7831,-6.7807,-6.788,-6.7864,-6.8,-6.7976,-6.7992,-6.7985,-6.8084,-6.8074,-6.8414,-6.8455,-6.8149,-6.8152,-6.8154,0,-6.7555,-6.7636,-6.7657,-6.77,-6.7717,-6.7786,-6.7824,-6.7788,-6.783,-6.7867,-6.7927,-6.799,-6.8039,-6.8152,-6.8146,-6.8201,-6.8176,-6.8291,-6.8184,-6.8193,-6.8175,-6.817,-6.8177,-6.8312,-6.8316,-6.8319,-6.8321,0,-6.783,-6.7816,-6.7875,-6.793,-6.7978,-6.8019,-6.8055,-6.8093,-6.8058,-6.8108,-6.8178,-6.8216,-6.8291,-6.8354,-6.8403,-6.8412,-6.8361,-6.8355,-6.838,-6.8393,-6.8398,-6.8395,-6.8048,-6.8347,-6.8344,-6.8343,-6.8341,-6.834,-6.8031,-6.8099,-6.8124,-6.819,-6.8214,-6.8248,-6.8309,-6.8307,-6.8366,-6.8424,-6.8399,-6.848,-6.8503,-6.8563,-6.858,-6.8641,-6.8596,-6.8634,-6.8643,-6.8652,-6.8664,-6.839,-6.865,-6.8649,-6.8649,-6.8648,-6.8647,0,-6.83,-6.8313,-6.8375,-6.8427,-6.8479,-6.8427,-6.8463,-6.8509,-6.8581,-6.8608,-6.8658,-6.8737,-6.8798,-6.8796,-6.8851,-6.89,-6.8878,-6.8916,-6.8911,-6.8914,-6.8702,-6.8674,-6.8933,-6.8933,-6.8933,-6.8933,-6.8933,-6.8933,-6.8447,-6.8558,-6.8548,-6.8668,-6.8679,-6.8759,-6.8784,-6.8814,-6.8835,-6.8927,-6.8978,-6.8977,-6.8991,-6.9047,-6.91,-6.9097,-6.912,-6.9167,-6.9155,-6.8957,-6.8929,-6.8902,-6.8875,-6.9172,-6.9173,-6.9362,-6.9363,-6.9365]}]]